Location: Hradec Kralove
(50.2167°N, 15.8333°E)
Time: 11:52:20
(UTC+01:00)

ISS - Visible Passes

Search period start: 20 January 2018 00:00
Search period end: 30 January 2018 00:00
Orbit: 402 x 407 km, 51.6° (Epoch: 20 January)

Date Brightness Start Highest point End Pass type
(mag) Time Alt. Az. Time Alt. Az. Time Alt. Az.
26 Jan -1.7 18:54:49 10° SSW 18:56:11 19° S 18:56:11 19° S visible
27 Jan -2.0 18:03:10 10° S 18:05:27 18° SE 18:06:11 17° ESE visible
27 Jan -0.8 19:38:15 10° WSW 19:38:51 14° WSW 19:38:51 14° WSW visible
28 Jan -3.2 18:45:59 10° SW 18:48:45 45° S 18:48:45 45° S visible
29 Jan -2.7 17:53:54 10° SSW 17:56:50 32° SSE 17:58:36 19° E visible
29 Jan -1.4 19:29:51 10° W 19:31:15 23° W 19:31:15 23° W visible
